CW5752 Weather Reports


time (UTC)temp
C
wind
direction
speed
KPH
gust
KPH
rain 1hr
cm
rain 24hr
cm
rain mn
cm
humidity
%
barometer
mb
20260831044021 20 0.0 0.0 0.00 0.00 0.00 88 1016.5
20260831043016 20 0.0 0.0 0.00 0.00 0.00 88 1016.3
20260831042016 20 0.0 0.0 0.00 0.00 0.00 89 1016.3
20260831041021 20 0.0 0.0 0.00 0.00 0.00 87 1016.3
20260831040021 20 0.0 0.0 0.00 0.00 0.00 87 1016.3
20260831035021 20 0.0 0.0 0.00 0.00 0.00 87 1016.3
20260831034039 20 0.0 0.0 0.00 0.00 0.00 87 1016.2
20260831033041 20 0.0 0.0 0.00 0.00 0.00 86 1016.2
20260831032016 20 0.0 0.0 0.00 0.00 0.00 87 1016.2
20260831031021 20 0.0 0.0 0.00 0.00 0.00 86 1016.3
20260831030021 21 0.0 0.0 0.00 0.00 0.00 85 1016.3
20260831025021 21 0.0 0.0 0.00 0.00 0.00 85 1016.2
20260831024041 21 0.0 0.0 0.00 0.00 0.00 83 1016.3
20260831023021 21 0.0 0.0 0.00 0.00 0.00 83 1016.2
20260831022016 21 0.0 0.0 0.00 0.00 0.00 81 1016.2
20260831021016 22 0.0 0.0 0.00 0.00 0.00 80 1015.9
20260831020021 22 0.0 0.0 0.00 0.00 0.00 79 1015.8
20260831015021 22 0.0 0.0 0.00 0.00 0.00 78 1015.7
20260831014041 23 0.0 0.0 0.00 0.00 0.00 74 1015.6
20260831013021 23 0.0 0.0 0.00 0.00 0.00 74 1015.5
20260831012021 24 0.0 0.0 0.00 0.00 0.00 73 1015.4
20260831011016 24 0.0 0.0 0.00 0.00 0.00 74 1015.3
20260831010021 25 0.0 0.0 0.00 0.00 0.00 73 1015.3
20260831005041 25 0.0 0.0 0.00 0.00 0.00 70 1015.2
20260831004031 25 0.0 0.0 0.00 0.00 0.00 69 1015.3
20260831003021 26 0.0 0.0 0.00 0.00 0.00 66 1015.3
20260831002021 27 0.0 0.0 0.00 0.00 0.00 60 1015.3
20260831001021 28 0.0 0.0 0.00 0.00 0.00 58 1015.3
20260831000016 28 0.0 3.2 0.00 0.00 0.00 54 1015.3
20260830235041 30 0.0 1.6 0.00 0.00 0.00 53 1015.5
20260830234021 30 181 0.0 4.8 0.00 0.00 0.00 49 1015.5
20260830233021 30 194 0.0 4.8 0.00 0.00 0.00 48 1015.5
20260830232021 31 170 0.0 8.0 0.00 0.00 0.00 47 1015.6
20260830231021 31 174 1.6 9.7 0.00 0.00 0.00 45 1015.6
20260830230015 31 195 3.2 9.7 0.00 0.00 0.00 45 1015.7
20260830225016 32 189 3.2 11.3 0.00 0.00 0.00 44 1015.7
20260830224021 32 192 3.2 12.9 0.00 0.00 0.00 43 1015.8
20260830223021 32 192 1.6 17.7 0.00 0.00 0.00 42 1015.6
20260830222021 32 184 1.6 9.7 0.00 0.00 0.00 45 1015.5
20260830221021 32 174 1.6 12.9 0.00 0.00 0.00 42 1015.5
20260830220021 32 194 3.2 11.3 0.00 0.00 0.00 42 1015.6
20260830215015 32 193 0.0 3.2 0.00 0.00 0.00 43 1015.6
20260830214021 33 159 0.0 9.7 0.00 0.00 0.00 44 1015.6
20260830213041 33 180 1.6 16.1 0.00 0.00 0.00 42 1015.7
20260830212021 33 188 0.0 8.0 0.00 0.00 0.00 44 1015.8
20260830211021 32 179 1.6 12.9 0.00 0.00 0.00 44 1015.9
20260830210021 32 175 1.6 9.7 0.00 0.00 0.00 44 1015.9
20260830205016 32 166 0.0 4.8 0.00 0.00 0.00 45 1016.1
20260830204036 32 187 0.0 11.3 0.00 0.00 0.00 48 1016.1
20260830203041 33 203 1.6 12.9 0.00 0.00 0.00 44 1016.3
20260830202021 33 185 3.2 12.9 0.00 0.00 0.00 45 1016.3
20260830201021 32 183 1.6 9.7 0.00 0.00 0.00 44 1016.4
20260830200041 32 161 0.0 3.2 0.00 0.00 0.00 44 1016.4
20260830195021 33 157 0.0 9.7 0.00 0.00 0.00 39 1016.6
20260830194036 33 173 1.6 9.7 0.00 0.00 0.00 40 1016.7
20260830193021 33 201 3.2 11.3 0.00 0.00 0.00 41 1016.8
20260830192021 33 203 3.2 11.3 0.00 0.00 0.00 41 1017.0
20260830191020 33 196 3.2 12.9 0.00 0.00 0.00 41 1017.0
20260830190021 32 184 1.6 9.7 0.00 0.00 0.00 44 1017.0
20260830185021 33 229 3.2 9.7 0.00 0.00 0.00 45 1017.2
20260830184041 32 180 1.6 9.7 0.00 0.00 0.00 44 1017.2
20260830183016 32 185 3.2 11.3 0.00 0.00 0.00 40 1017.4
20260830182021 32 213 1.6 11.3 0.00 0.00 0.00 45 1017.4
20260830181041 32 207 3.2 11.3 0.00 0.00 0.00 42 1017.6
20260830180021 32 204 3.2 9.7 0.00 0.00 0.00 44 1017.5
20260830175021 32 196 6.4 20.9 0.00 0.00 0.00 44 1017.7
20260830174021 32 209 3.2 17.7 0.00 0.00 0.00 44 1017.8
20260830173036 32 218 4.8 14.5 0.00 0.00 0.00 44 1017.9
20260830172015 32 195 3.2 16.1 0.00 0.00 0.00 47 1018.1
20260830171021 31 197 6.4 12.9 0.00 0.00 0.00 46 1018.2
20260830170021 32 202 4.8 16.1 0.00 0.00 0.00 46 1018.1
20260830165021 31 209 3.2 16.1 0.00 0.00 0.00 49 1018.1
20260830164019 31 208 4.8 14.5 0.00 0.00 0.00 48 1018.2
20260830163020 31 220 4.8 12.9 0.00 0.00 0.00 49 1018.1
20260830162016 30 232 3.2 14.5 0.00 0.00 0.00 54 1018.2
20260830161020 30 192 0.0 6.4 0.00 0.00 0.00 57 1018.1
20260830160020 29 209 0.0 8.0 0.00 0.00 0.00 59 1018.2
20260830155020 28 151 0.0 3.2 0.00 0.00 0.00 58 1018.1
20260830154021 28 150 0.0 3.2 0.00 0.00 0.00 63 1018.1
20260830153022 28 150 0.0 4.8 0.00 0.00 0.00 66 1018.2
20260830152036 27 155 0.0 9.7 0.00 0.00 0.00 66 1018.1
20260830151035 27 180 0.0 6.4 0.00 0.00 0.00 66 1018.1
20260830150041 27 178 0.0 6.4 0.00 0.00 0.00 69 1018.1
20260830145021 26 193 1.6 8.0 0.00 0.00 0.00 69 1018.1
20260830144021 26 197 1.6 8.0 0.00 0.00 0.00 70 1018.0
20260830143021 26 192 4.8 11.3 0.00 0.00 0.00 71 1018.0
20260830142021 25 187 3.2 9.7 0.00 0.00 0.00 72 1018.0
20260830141015 25 183 1.6 8.0 0.00 0.00 0.00 73 1017.9
20260830140021 25 186 1.6 8.0 0.00 0.00 0.00 77 1018.0
20260830135021 24 164 0.0 3.2 0.00 0.00 0.00 79 1018.0
20260830134020 23 163 0.0 3.2 0.00 0.00 0.00 82 1017.9
20260830133021 22 163 0.0 3.2 0.00 0.00 0.00 86 1018.0
20260830132021 22 163 0.0 3.2 0.00 0.00 0.00 88 1018.0
20260830131020 21 0.0 0.0 0.00 0.00 0.00 91 1018.1
20260830130015 20 0.0 0.0 0.00 0.00 0.00 93 1018.2
20260830125041 18 0.0 0.0 0.00 0.00 0.00 94 1018.2
20260830124021 18 0.0 0.0 0.00 0.00 0.00 94 1018.2
20260830123101 18 0.0 0.0 0.00 0.00 0.00 94 1018.1
20260830122041 17 0.0 0.0 0.00 0.00 0.00 94 1018.0
20260830121020 17 0.0 0.0 0.00 0.00 0.00 94 1017.8
20260830120015 17 0.0 0.0 0.00 0.00 0.00 94 1017.8
20260830115016 17 0.0 0.0 0.00 0.00 0.00 93 1017.6
20260830114021 17 0.0 0.0 0.00 0.00 0.00 94 1017.6
20260830113021 17 0.0 0.0 0.00 0.00 0.00 94 1017.6
20260830112041 17 0.0 0.0 0.00 0.00 0.00 94 1017.5
20260830111018 17 0.0 0.0 0.00 0.00 0.00 94 1017.4
20260830110021 17 0.0 0.0 0.00 0.00 0.00 93 1017.4
20260830105015 17 0.0 0.0 0.00 0.00 0.00 94 1017.1
20260830104020 18 0.0 0.0 0.00 0.00 0.00 94 1017.2
20260830103021 17 0.0 0.0 0.00 0.00 0.00 94 1017.2
20260830102021 17 0.0 0.0 0.00 0.00 0.00 94 1017.2
20260830101040 17 0.0 0.0 0.00 0.00 0.00 94 1017.3
20260830100020 17 0.0 0.0 0.00 0.00 0.00 94 1017.3
20260830095036 18 0.0 0.0 0.00 0.00 0.00 94 1017.3
20260830094015 18 0.0 0.0 0.00 0.00 0.00 94 1017.4
20260830093021 18 0.0 0.0 0.00 0.00 0.00 94 1017.5
20260830092046 18 0.0 0.0 0.00 0.00 0.00 94 1017.5
20260830091020 18 0.0 0.0 0.00 0.00 0.00 94 1017.6
20260830090021 17 0.0 0.0 0.00 0.00 0.00 93 1017.7
20260830085040 18 0.0 0.0 0.00 0.00 0.00 94 1017.7
20260830084015 18 0.0 0.0 0.00 0.00 0.00 94 1017.7
20260830083021 18 0.0 0.0 0.00 0.00 0.00 93 1017.7
20260830082020 18 0.0 0.0 0.00 0.00 0.00 93 1017.6
20260830081021 18 0.0 0.0 0.00 0.00 0.00 93 1017.7
20260830080021 18 0.0 0.0 0.00 0.00 0.00 93 1017.7
20260830075020 18 0.0 0.0 0.00 0.00 0.00 93 1017.7
20260830074021 18 0.0 0.0 0.00 0.00 0.00 93 1017.6
20260830073015 18 0.0 0.0 0.00 0.00 0.00 93 1017.6
20260830072040 18 0.0 0.0 0.00 0.00 0.00 92 1017.9
20260830071021 18 0.0 0.0 0.00 0.00 0.00 93 1017.8
20260830070021 18 0.0 0.0 0.00 0.00 0.00 93 1017.8
20260830065021 18 0.0 0.0 0.00 0.00 0.00 93 1017.9
20260830064020 18 0.0 0.0 0.00 0.00 0.00 92 1018.1
20260830063016 19 0.0 0.0 0.00 0.00 0.00 93 1018.0
20260830062016 19 0.0 0.0 0.00 0.00 0.00 92 1017.9
20260830061041 18 0.0 0.0 0.00 0.00 0.00 92 1017.9
20260830060101 19 0.0 0.0 0.00 0.00 0.00 92 1018.0
20260830055021 19 0.0 0.0 0.00 0.00 0.00 92 1018.0
20260830054020 19 0.0 0.0 0.00 0.00 0.00 91 1017.9
20260830053020 20 0.0 0.0 0.00 0.00 0.00 92 1018.0
20260830052015 20 0.0 0.0 0.00 0.00 0.00 92 1018.0
20260830051021 20 0.0 0.0 0.00 0.00 0.00 92 1017.8
20260830050020 19 0.0 0.0 0.00 0.00 0.00 92 1017.7
20260830045022 19 0.0 0.0 0.00 0.00 0.00 92 1017.7